TimeCST,TemperatureF,Dew PointF,Humidity,Sea Level PressureIn,VisibilityMPH,Wind Direction,Wind SpeedMPH,Gust SpeedMPH,PrecipitationIn,Events,Conditions,WindDirDegrees,DateUTC
12:55 AM,36.0,32.0,86,30.09,8.0,NNW,4.6,-,N/A,,Clear,330,2012-11-20 06:55:00
1:55 AM,34.0,30.9,89,30.11,7.0,NNW,8.1,-,N/A,,Clear,330,2012-11-20 07:55:00
2:55 AM,33.1,30.0,89,30.12,5.0,NNW,6.9,-,N/A,,Clear,330,2012-11-20 08:55:00
3:55 AM,30.9,28.9,92,30.13,5.0,NNW,5.8,-,N/A,,Clear,330,2012-11-20 09:55:00
4:55 AM,30.9,28.0,89,30.12,4.0,NW,6.9,-,N/A,,Clear,320,2012-11-20 10:55:00
5:55 AM,30.2,28.4,93,30.08,3.0,NNW,8.1,-,N/A,,Scattered Clouds,330,2012-11-20 11:55:00
6:01 AM,30.2,28.4,93,30.08,1.0,NNW,3.5,-,N/A,,Mostly Cloudy,330,2012-11-20 12:01:00
6:10 AM,30.2,28.4,93,30.08,0.8,NNW,5.8,-,N/A,,Mist,340,2012-11-20 12:10:00
6:19 AM,28.4,28.4,100,30.09,0.2,NNW,5.8,-,N/A,Fog,Light Freezing Fog,340,2012-11-20 12:19:00
6:55 AM,28.0,26.1,92,30.15,0.2,NNW,8.1,-,N/A,Fog,Light Freezing Fog,340,2012-11-20 12:55:00
7:13 AM,28.4,26.6,93,30.10,0.2,NNW,12.7,-,N/A,Fog,Light Freezing Fog,330,2012-11-20 13:13:00
7:39 AM,28.4,26.6,93,30.12,0.2,North,6.9,-,N/A,Fog,Light Freezing Fog,350,2012-11-20 13:39:00
7:55 AM,28.0,26.1,92,30.18,0.2,NNW,11.5,-,N/A,Fog,Light Freezing Fog,340,2012-11-20 13:55:00
8:48 AM,28.4,26.6,93,30.11,0.8,North,6.9,-,N/A,,Mostly Cloudy,10,2012-11-20 14:48:00
8:55 AM,28.0,27.0,96,30.17,0.2,NNE,4.6,-,N/A,Fog,Light Freezing Fog,30,2012-11-20 14:55:00
9:03 AM,28.4,26.6,93,30.11,0.2,North,5.8,-,N/A,Fog,Light Freezing Fog,360,2012-11-20 15:03:00
9:14 AM,28.4,26.6,93,30.11,0.5,North,4.6,-,N/A,Fog,Light Freezing Fog,10,2012-11-20 15:14:00
9:24 AM,28.4,26.6,93,30.11,0.2,North,3.5,-,N/A,Fog,Light Freezing Fog,10,2012-11-20 15:24:00
9:32 AM,30.2,28.4,93,30.11,0.2,Calm,Calm,-,N/A,Fog,Light Freezing Fog,0,2012-11-20 15:32:00
9:55 AM,30.9,28.9,92,30.18,0.5,North,6.9,-,N/A,Fog,Light Freezing Fog,10,2012-11-20 15:55:00
9:58 AM,30.2,28.4,93,30.12,1.0,North,4.6,-,N/A,,Mist,360,2012-11-20 15:58:00
9:59 AM,30.2,28.4,93,30.12,0.5,North,4.6,-,N/A,Fog,Light Freezing Fog,360,2012-11-20 15:59:00
10:01 AM,30.2,28.4,93,30.13,0.2,North,5.8,-,N/A,Fog,Light Freezing Fog,360,2012-11-20 16:01:00
10:25 AM,30.2,28.4,93,30.13,0.8,NNW,3.5,-,N/A,,Mostly Cloudy,340,2012-11-20 16:25:00
10:52 AM,32.0,30.2,93,30.13,1.5,Calm,Calm,-,N/A,,Mostly Cloudy,0,2012-11-20 16:52:00
10:55 AM,32.0,30.0,92,30.18,2.5,Calm,Calm,-,N/A,,Mostly Cloudy,0,2012-11-20 16:55:00
11:00 AM,33.8,30.2,87,30.13,6.0,NNW,3.5,-,N/A,,Scattered Clouds,330,2012-11-20 17:00:00
11:55 AM,39.0,32.0,76,30.17,10.0,NNW,3.5,-,N/A,,Partly Cloudy,330,2012-11-20 17:55:00
12:55 PM,42.8,32.0,66,30.10,10.0,North,3.5,-,N/A,,Partly Cloudy,350,2012-11-20 18:55:00
1:55 PM,44.6,32.0,61,30.09,10.0,Calm,Calm,-,N/A,,Partly Cloudy,0,2012-11-20 19:55:00
2:55 PM,46.0,32.0,58,30.13,10.0,Calm,Calm,-,N/A,,Partly Cloudy,0,2012-11-20 20:55:00
3:55 PM,46.0,30.9,56,30.13,10.0,Calm,Calm,-,N/A,,Partly Cloudy,0,2012-11-20 21:55:00
4:55 PM,39.9,28.9,65,30.13,10.0,South,3.5,-,N/A,,Partly Cloudy,170,2012-11-20 22:55:00
5:55 PM,33.1,28.9,85,30.13,8.0,ESE,8.1,-,N/A,,Partly Cloudy,120,2012-11-20 23:55:00
6:55 PM,33.1,28.9,85,30.11,9.0,SE,6.9,-,N/A,,Partly Cloudy,130,2012-11-21 00:55:00
7:55 PM,33.1,30.0,89,30.12,6.0,SE,5.8,-,N/A,,Clear,130,2012-11-21 01:55:00
8:14 PM,32.0,30.2,93,30.04,1.0,SE,5.8,-,N/A,,Mist,130,2012-11-21 02:14:00
8:16 PM,32.0,30.2,93,30.04,2.0,SE,5.8,-,N/A,,Scattered Clouds,130,2012-11-21 02:16:00
8:55 PM,30.9,28.9,92,30.10,2.0,ESE,6.9,-,N/A,,Scattered Clouds,120,2012-11-21 02:55:00
9:22 PM,28.4,28.4,100,30.04,0.5,SE,5.8,-,N/A,Fog,Light Freezing Fog,130,2012-11-21 03:22:00
9:33 PM,30.2,28.4,93,30.04,0.2,ESE,5.8,-,N/A,Fog,Light Freezing Fog,120,2012-11-21 03:33:00
9:55 PM,28.9,28.0,96,30.11,0.8,ESE,6.9,-,N/A,,Mist,120,2012-11-21 03:55:00
10:02 PM,28.4,26.6,93,30.04,2.0,ESE,5.8,-,N/A,,Overcast,120,2012-11-21 04:02:00
10:14 PM,28.4,26.6,93,30.04,0.5,ESE,6.9,-,N/A,Fog,Light Freezing Fog,110,2012-11-21 04:14:00
10:21 PM,30.2,28.4,93,30.03,0.2,ESE,6.9,-,N/A,Fog,Light Freezing Fog,120,2012-11-21 04:21:00
10:55 PM,32.0,30.9,96,30.09,0.2,SE,6.9,-,N/A,Fog,Light Freezing Fog,130,2012-11-21 04:55:00
11:55 PM,33.1,32.0,96,30.06,0.1,SE,5.8,-,N/A,Fog,Fog,140,2012-11-21 05:55:00